GFSNE_prec_precacc6_267.txt.gz
Total_Precipitation_Accumulation
0.53 0.69 0.98 0.78 0.47 0.09 0.02 0.01 0.01 0.02 0.01 0.00 0.00 0.00 0.00 0.00 0.00 0.00 0.00 0.00 0.00 0.00 0.00 0.00 0.00 0.00 0.00 0.00 0.00 0.00 0.00 0.00 0.00 0.00 0.00 0.00 0.00 0.00
0.24 0.35 0.34 0.37 0.39 0.26 0.08 0.03 0.01 0.00 0.00 0.00 0.00 0.00 0.00 0.00 0.00 0.00 0.00 0.00 0.00 0.00 0.00 0.00 0.00 0.00 0.00 0.00 0.00 0.00 0.00 0.00 0.00 0.00 0.00 0.00 0.00 0.00
0.06 0.15 0.19 0.13 0.13 0.14 0.15 0.08 0.02 0.01 0.00 0.00 0.00 0.00 0.00 0.00 0.00 0.00 0.00 0.00 0.00 0.00 0.00 0.00 0.00 0.00 0.00 0.00 0.00 0.00 0.00 0.00 0.00 0.00 0.00 0.00 0.00 0.00
0.05 0.06 0.06 0.06 0.11 0.18 0.12 0.10 0.07 0.02 0.01 0.00 0.00 0.00 0.00 0.00 0.00 0.00 0.00 0.00 0.00 0.00 0.00 0.00 0.00 0.00 0.00 0.00 0.00 0.00 0.00 0.00 0.00 0.00 0.00 0.00 0.00 0.00
0.03 0.05 0.03 0.07 0.05 0.09 0.16 0.09 0.05 0.03 0.02 0.01 0.00 0.00 0.00 0.00 0.00 0.00 0.00 0.00 0.00 0.00 0.00 0.00 0.00 0.00 0.00 0.00 0.00 0.00 0.00 0.00 0.00 0.00 0.00 0.00 0.00 0.00
0.03 0.04 0.04 0.06 0.07 0.06 0.06 0.06 0.04 0.03 0.03 0.02 0.00 0.00 0.00 0.00 0.00 0.00 0.00 0.00 0.00 0.00 0.00 0.00 0.00 0.00 0.00 0.00 0.00 0.00 0.00 0.00 0.00 0.00 0.00 0.00 0.00 0.00
0.14 0.10 0.08 0.08 0.07 0.06 0.08 0.05 0.04 0.04 0.03 0.02 0.01 0.00 0.00 0.00 0.00 0.00 0.00 0.00 0.00 0.00 0.00 0.00 0.00 0.00 0.00 0.00 0.00 0.00 0.00 0.00 0.00 0.00 0.00 0.00 0.00 0.00
0.20 0.22 0.11 0.07 0.02 0.04 0.05 0.08 0.06 0.04 0.04 0.02 0.01 0.00 0.00 0.00 0.00 0.00 0.00 0.00 0.00 0.00 0.00 0.00 0.00 0.00 0.00 0.00 0.00 0.00 0.00 0.00 0.00 0.00 0.00 0.00 0.00 0.00
0.17 0.20 0.19 0.11 0.08 0.02 0.03 0.06 0.08 0.06 0.03 0.02 0.02 0.02 0.00 0.00 0.00 0.00 0.00 0.00 0.00 0.00 0.00 0.00 0.00 0.00 0.00 0.00 0.00 0.00 0.00 0.00 0.00 0.00 0.00 0.00 0.00 0.00
0.20 0.19 0.19 0.16 0.13 0.07 0.02 0.03 0.07 0.08 0.05 0.03 0.02 0.02 0.02 0.00 0.00 0.00 0.00 0.00 0.00 0.00 0.00 0.00 0.00 0.00 0.00 0.00 0.00 0.00 0.00 0.00 0.00 0.00 0.00 0.00 0.00 0.00
0.32 0.24 0.22 0.19 0.21 0.18 0.07 0.06 0.07 0.11 0.18 0.07 0.04 0.04 0.02 0.02 0.01 0.01 0.01 0.01 0.01 0.00 0.00 0.00 0.00 0.01 0.01 0.00 0.00 0.00 0.00 0.00 0.00 0.00 0.00 0.00 0.00 0.00
0.34 0.28 0.25 0.25 0.28 0.20 0.13 0.07 0.09 0.12 0.13 0.11 0.04 0.03 0.03 0.03 0.03 0.02 0.01 0.01 0.01 0.01 0.00 0.00 0.01 0.01 0.02 0.01 0.00 0.00 0.00 0.00 0.00 0.00 0.00 0.00 0.00 0.00
0.20 0.26 0.25 0.24 0.24 0.22 0.20 0.12 0.14 0.12 0.10 0.15 0.16 0.12 0.08 0.03 0.03 0.02 0.01 0.00 0.00 0.00 0.00 0.00 0.01 0.01 0.01 0.01 0.00 0.00 0.00 0.00 0.00 0.00 0.00 0.00 0.00 0.00
0.17 0.17 0.23 0.21 0.16 0.19 0.19 0.19 0.16 0.13 0.05 0.06 0.13 0.27 0.34 0.25 0.16 0.06 0.01 0.00 0.01 0.00 0.00 0.00 0.00 0.00 0.00 0.00 0.00 0.00 0.00 0.00 0.00 0.00 0.00 0.00 0.00 0.00
0.18 0.16 0.14 0.14 0.12 0.12 0.15 0.15 0.11 0.05 0.04 0.05 0.09 0.16 0.29 0.44 0.40 0.33 0.19 0.08 0.05 0.03 0.01 0.00 0.00 0.00 0.00 0.00 0.00 0.00 0.00 0.00 0.00 0.00 0.00 0.00 0.00 0.00
0.08 0.12 0.11 0.09 0.10 0.08 0.11 0.11 0.08 0.09 0.09 0.07 0.07 0.11 0.15 0.20 0.29 0.39 0.36 0.30 0.24 0.18 0.08 0.03 0.02 0.01 0.00 0.00 0.00 0.00 0.00 0.00 0.00 0.00 0.00 0.00 0.00 0.00
0.03 0.06 0.09 0.09 0.08 0.07 0.05 0.07 0.08 0.07 0.08 0.07 0.07 0.08 0.10 0.13 0.16 0.19 0.26 0.30 0.31 0.29 0.31 0.23 0.14 0.07 0.04 0.01 0.01 0.00 0.00 0.00 0.00 0.00 0.00 0.00 0.00 0.00
0.01 0.03 0.07 0.09 0.09 0.08 0.05 0.03 0.03 0.04 0.03 0.03 0.04 0.07 0.10 0.12 0.13 0.15 0.16 0.17 0.20 0.25 0.27 0.30 0.28 0.20 0.18 0.17 0.23 0.06 0.03 0.02 0.01 0.00 0.00 0.00 0.00 0.00
0.01 0.02 0.04 0.06 0.07 0.05 0.05 0.03 0.02 0.01 0.02 0.01 0.01 0.02 0.02 0.05 0.12 0.12 0.13 0.15 0.18 0.18 0.17 0.20 0.23 0.24 0.21 0.17 0.17 0.20 0.06 0.05 0.05 0.04 0.03 0.02 0.00 0.00
0.01 0.02 0.03 0.04 0.04 0.04 0.03 0.02 0.02 0.02 0.01 0.01 0.01 0.01 0.01 0.01 0.01 0.03 0.06 0.11 0.13 0.15 0.17 0.18 0.18 0.18 0.19 0.18 0.14 0.14 0.25 0.09 0.04 0.05 0.06 0.07 0.07 0.12
0.01 0.01 0.02 0.02 0.03 0.03 0.03 0.02 0.02 0.02 0.02 0.01 0.01 0.00 0.00 0.01 0.01 0.01 0.01 0.01 0.04 0.08 0.12 0.16 0.19 0.23 0.18 0.18 0.17 0.16 0.16 0.22 0.12 0.05 0.04 0.05 0.06 0.06
0.01 0.01 0.02 0.02 0.02 0.01 0.02 0.02 0.01 0.01 0.01 0.01 0.01 0.01 0.00 0.01 0.01 0.01 0.01 0.00 0.01 0.01 0.01 0.03 0.08 0.11 0.14 0.16 0.16 0.19 0.17 0.16 0.20 0.17 0.10 0.07 0.07 0.07
0.03 0.02 0.02 0.02 0.01 0.01 0.01 0.01 0.01 0.01 0.01 0.01 0.01 0.01 0.01 0.01 0.00 0.00 0.00 0.00 0.00 0.00 0.00 0.00 0.00 0.01 0.03 0.06 0.09 0.09 0.12 0.13 0.13 0.13 0.11 0.13 0.12 0.10

GFSNE_prec_precacc6_270.txt.gz
Total_Precipitation_Accumulation
0.34 0.67 1.22 1.42 1.26 0.60 0.14 0.06 0.06 0.09 0.04 0.00 0.00 0.00 0.00 0.00 0.00 0.00 0.00 0.00 0.00 0.00 0.00 0.00 0.00 0.00 0.00 0.00 0.00 0.00 0.00 0.00 0.00 0.00 0.00 0.00 0.00 0.00
0.17 0.29 0.42 0.79 1.08 1.01 0.60 0.16 0.07 0.02 0.03 0.01 0.00 0.00 0.00 0.00 0.00 0.00 0.00 0.00 0.00 0.00 0.00 0.00 0.00 0.00 0.00 0.00 0.00 0.00 0.00 0.00 0.00 0.00 0.00 0.00 0.00 0.00
0.05 0.18 0.21 0.22 0.40 0.61 0.69 0.51 0.17 0.02 0.00 0.00 0.00 0.00 0.00 0.00 0.00 0.00 0.00 0.00 0.00 0.00 0.00 0.00 0.00 0.00 0.00 0.00 0.00 0.00 0.00 0.00 0.00 0.00 0.00 0.00 0.00 0.00
0.03 0.08 0.14 0.17 0.23 0.23 0.37 0.42 0.35 0.11 0.01 0.00 0.01 0.01 0.00 0.00 0.00 0.00 0.00 0.00 0.00 0.00 0.00 0.00 0.00 0.00 0.00 0.00 0.00 0.00 0.00 0.00 0.00 0.00 0.00 0.00 0.00 0.00
0.02 0.04 0.09 0.13 0.16 0.18 0.18 0.17 0.21 0.30 0.15 0.02 0.01 0.01 0.04 0.02 0.01 0.00 0.00 0.00 0.00 0.00 0.00 0.00 0.00 0.00 0.00 0.00 0.00 0.00 0.00 0.00 0.00 0.00 0.00 0.00 0.00 0.00
0.02 0.02 0.08 0.10 0.09 0.14 0.11 0.08 0.06 0.12 0.23 0.16 0.02 0.00 0.03 0.09 0.06 0.01 0.00 0.00 0.00 0.00 0.00 0.00 0.00 0.00 0.00 0.00 0.00 0.00 0.00 0.00 0.00 0.00 0.00 0.00 0.00 0.00
0.03 0.04 0.05 0.14 0.10 0.06 0.10 0.09 0.05 0.04 0.07 0.16 0.11 0.02 0.00 0.06 0.08 0.03 0.00 0.00 0.00 0.00 0.00 0.00 0.00 0.00 0.00 0.00 0.00 0.00 0.00 0.00 0.00 0.00 0.00 0.00 0.00 0.00
0.02 0.04 0.05 0.06 0.06 0.04 0.03 0.07 0.08 0.06 0.04 0.03 0.08 0.07 0.01 0.01 0.05 0.03 0.01 0.00 0.00 0.00 0.00 0.00 0.00 0.00 0.00 0.00 0.00 0.00 0.00 0.00 0.00 0.00 0.00 0.00 0.00 0.00
0.02 0.05 0.07 0.05 0.04 0.01 0.01 0.02 0.07 0.07 0.06 0.05 0.03 0.03 0.02 0.01 0.01 0.04 0.02 0.00 0.00 0.00 0.00 0.00 0.00 0.00 0.00 0.00 0.00 0.00 0.00 0.00 0.00 0.00 0.00 0.00 0.00 0.00
0.03 0.05 0.07 0.09 0.07 0.03 0.01 0.00 0.01 0.05 0.09 0.07 0.05 0.03 0.03 0.02 0.01 0.00 0.01 0.02 0.01 0.00 0.00 0.00 0.00 0.00 0.00 0.00 0.00 0.00 0.00 0.00 0.00 0.00 0.00 0.00 0.00 0.00
0.05 0.06 0.10 0.10 0.12 0.08 0.03 0.03 0.02 0.01 0.06 0.08 0.07 0.05 0.04 0.04 0.04 0.05 0.05 0.09 0.05 0.01 0.01 0.00 0.00 0.00 0.01 0.00 0.00 0.00 0.00 0.00 0.00 0.00 0.00 0.00 0.00 0.00
0.05 0.07 0.13 0.14 0.17 0.10 0.07 0.05 0.05 0.05 0.03 0.03 0.03 0.04 0.05 0.05 0.05 0.06 0.09 0.09 0.03 0.01 0.01 0.03 0.01 0.01 0.01 0.01 0.00 0.00 0.00 0.00 0.00 0.00 0.00 0.00 0.00 0.00
0.05 0.08 0.13 0.17 0.17 0.16 0.14 0.11 0.13 0.11 0.07 0.04 0.04 0.04 0.05 0.04 0.11 0.13 0.08 0.10 0.10 0.05 0.00 0.02 0.01 0.01 0.00 0.00 0.00 0.00 0.00 0.00 0.00 0.00 0.00 0.00 0.00 0.00
0.06 0.08 0.16 0.20 0.16 0.18 0.18 0.19 0.16 0.13 0.07 0.05 0.04 0.08 0.15 0.14 0.11 0.08 0.08 0.08 0.09 0.09 0.03 0.02 0.01 0.00 0.00 0.00 0.00 0.00 0.00 0.00 0.00 0.00 0.00 0.00 0.00 0.00
0.12 0.09 0.10 0.13 0.14 0.14 0.16 0.16 0.15 0.09 0.08 0.09 0.09 0.08 0.12 0.22 0.22 0.18 0.14 0.10 0.10 0.14 0.15 0.07 0.04 0.00 0.00 0.00 0.00 0.00 0.00 0.00 0.00 0.00 0.00 0.00 0.00 0.00
0.05 0.11 0.11 0.09 0.10 0.10 0.13 0.14 0.14 0.19 0.20 0.15 0.11 0.10 0.09 0.07 0.13 0.23 0.22 0.20 0.21 0.26 0.25 0.19 0.16 0.12 0.03 0.00 0.00 0.00 0.00 0.00 0.00 0.00 0.00 0.00 0.00 0.00
0.01 0.05 0.09 0.10 0.09 0.08 0.07 0.12 0.15 0.16 0.19 0.19 0.17 0.12 0.10 0.09 0.08 0.08 0.15 0.21 0.25 0.28 0.39 0.42 0.37 0.27 0.18 0.10 0.06 0.01 0.00 0.00 0.00 0.00 0.00 0.00 0.00 0.00
0.01 0.02 0.07 0.10 0.12 0.10 0.08 0.07 0.09 0.12 0.11 0.13 0.15 0.15 0.15 0.12 0.10 0.09 0.08 0.08 0.15 0.23 0.29 0.39 0.41 0.39 0.40 0.34 0.35 0.15 0.08 0.06 0.02 0.01 0.01 0.00 0.00 0.00
0.01 0.02 0.04 0.07 0.10 0.10 0.09 0.08 0.08 0.07 0.08 0.07 0.06 0.07 0.08 0.10 0.13 0.10 0.09 0.09 0.09 0.11 0.15 0.19 0.26 0.35 0.40 0.37 0.35 0.36 0.18 0.18 0.14 0.08 0.08 0.06 0.04 0.02
0.01 0.03 0.04 0.05 0.06 0.08 0.08 0.08 0.06 0.05 0.05 0.06 0.06 0.04 0.03 0.03 0.03 0.05 0.06 0.07 0.10 0.11 0.11 0.12 0.13 0.17 0.23 0.28 0.25 0.24 0.32 0.15 0.10 0.11 0.11 0.11 0.10 0.16
0.01 0.02 0.03 0.03 0.04 0.05 0.06 0.06 0.06 0.05 0.04 0.05 0.04 0.05 0.04 0.03 0.02 0.02 0.02 0.01 0.02 0.05 0.08 0.11 0.13 0.18 0.17 0.18 0.19 0.19 0.18 0.24 0.15 0.07 0.05 0.06 0.05 0.05
0.01 0.01 0.02 0.02 0.02 0.03 0.03 0.03 0.02 0.02 0.02 0.02 0.03 0.03 0.03 0.03 0.03 0.02 0.01 0.01 0.01 0.00 0.01 0.01 0.02 0.05 0.08 0.12 0.14 0.16 0.16 0.16 0.20 0.17 0.10 0.06 0.05 0.05
0.02 0.02 0.03 0.02 0.01 0.01 0.02 0.01 0.01 0.01 0.01 0.02 0.02 0.02 0.02 0.02 0.02 0.02 0.01 0.01 0.00 0.00 0.00 0.00 0.00 0.00 0.01 0.01 0.03 0.04 0.06 0.08 0.08 0.09 0.09 0.12 0.10 0.07

GFSNE_prec_precacc6_273.txt.gz
Total_Precipitation_Accumulation
0.06 0.26 0.66 1.04 1.03 1.00 0.85 0.51 0.47 0.18 0.04 0.01 0.00 0.00 0.00 0.00 0.00 0.00 0.00 0.00 0.00 0.00 0.00 0.00 0.00 0.00 0.00 0.00 0.00 0.00 0.00 0.00 0.00 0.00 0.00 0.00 0.00 0.00
0.02 0.06 0.23 0.63 0.95 1.05 1.05 0.79 0.52 0.20 0.07 0.02 0.00 0.00 0.00 0.00 0.00 0.00 0.00 0.00 0.00 0.00 0.00 0.00 0.00 0.00 0.00 0.00 0.00 0.00 0.00 0.00 0.00 0.00 0.00 0.00 0.00 0.00
0.03 0.08 0.10 0.21 0.49 0.75 0.92 0.96 0.84 0.43 0.09 0.04 0.03 0.01 0.00 0.00 0.00 0.00 0.00 0.00 0.00 0.00 0.00 0.00 0.00 0.00 0.00 0.00 0.00 0.00 0.00 0.00 0.00 0.00 0.00 0.00 0.00 0.00
0.01 0.04 0.11 0.16 0.25 0.32 0.60 0.68 0.67 0.59 0.27 0.10 0.03 0.04 0.02 0.00 0.00 0.00 0.00 0.00 0.00 0.00 0.00 0.00 0.00 0.00 0.00 0.00 0.00 0.00 0.00 0.00 0.00 0.00 0.00 0.00 0.00 0.00
0.01 0.02 0.07 0.12 0.17 0.19 0.22 0.36 0.44 0.48 0.37 0.14 0.07 0.04 0.07 0.07 0.05 0.01 0.00 0.00 0.00 0.00 0.00 0.00 0.00 0.00 0.00 0.00 0.00 0.00 0.00 0.00 0.00 0.00 0.00 0.00 0.00 0.00
0.01 0.02 0.07 0.08 0.09 0.18 0.16 0.11 0.21 0.38 0.51 0.33 0.11 0.04 0.06 0.15 0.14 0.05 0.01 0.00 0.00 0.00 0.00 0.00 0.00 0.00 0.00 0.00 0.00 0.00 0.00 0.00 0.00 0.00 0.00 0.00 0.00 0.00
0.01 0.02 0.03 0.10 0.09 0.07 0.16 0.18 0.11 0.15 0.28 0.36 0.21 0.07 0.03 0.09 0.17 0.11 0.03 0.00 0.00 0.00 0.00 0.00 0.00 0.00 0.00 0.00 0.00 0.00 0.00 0.00 0.00 0.00 0.00 0.00 0.00 0.00
0.01 0.01 0.02 0.03 0.05 0.04 0.04 0.13 0.16 0.09 0.06 0.15 0.17 0.13 0.03 0.02 0.09 0.15 0.10 0.02 0.00 0.00 0.00 0.00 0.00 0.00 0.00 0.00 0.00 0.00 0.00 0.00 0.00 0.00 0.00 0.00 0.00 0.00
0.01 0.01 0.01 0.02 0.02 0.01 0.01 0.01 0.07 0.08 0.10 0.12 0.10 0.10 0.07 0.02 0.03 0.08 0.20 0.11 0.00 0.00 0.00 0.00 0.00 0.00 0.00 0.00 0.00 0.00 0.00 0.00 0.00 0.00 0.00 0.00 0.00 0.00
0.02 0.02 0.01 0.01 0.02 0.01 0.00 0.00 0.00 0.02 0.05 0.08 0.09 0.07 0.09 0.09 0.06 0.04 0.04 0.21 0.07 0.01 0.01 0.00 0.00 0.00 0.00 0.00 0.00 0.00 0.00 0.00 0.00 0.00 0.00 0.00 0.00 0.00
0.01 0.02 0.02 0.02 0.03 0.02 0.00 0.00 0.01 0.00 0.02 0.06 0.04 0.04 0.09 0.15 0.22 0.15 0.13 0.13 0.08 0.04 0.07 0.02 0.00 0.00 0.00 0.00 0.00 0.00 0.00 0.00 0.00 0.00 0.00 0.00 0.00 0.00
0.01 0.02 0.06 0.04 0.05 0.03 0.01 0.01 0.01 0.02 0.01 0.01 0.01 0.02 0.02 0.05 0.15 0.23 0.18 0.18 0.10 0.03 0.03 0.09 0.01 0.00 0.01 0.00 0.00 0.00 0.00 0.00 0.00 0.00 0.00 0.00 0.00 0.00
0.01 0.01 0.03 0.06 0.07 0.06 0.05 0.03 0.03 0.03 0.02 0.01 0.00 0.00 0.00 0.02 0.09 0.15 0.16 0.19 0.21 0.16 0.04 0.05 0.03 0.01 0.00 0.00 0.00 0.00 0.00 0.00 0.00 0.00 0.00 0.00 0.00 0.00
0.02 0.02 0.04 0.06 0.06 0.07 0.07 0.09 0.06 0.04 0.03 0.02 0.01 0.00 0.00 0.01 0.03 0.04 0.08 0.10 0.11 0.16 0.13 0.15 0.05 0.01 0.00 0.00 0.00 0.00 0.00 0.00 0.00 0.00 0.00 0.00 0.00 0.00
0.01 0.01 0.01 0.03 0.04 0.06 0.08 0.08 0.10 0.06 0.05 0.07 0.05 0.03 0.02 0.02 0.02 0.02 0.05 0.08 0.09 0.14 0.21 0.17 0.17 0.11 0.06 0.01 0.00 0.00 0.00 0.00 0.00 0.00 0.00 0.00 0.00 0.00
0.01 0.01 0.01 0.01 0.01 0.03 0.05 0.07 0.09 0.13 0.16 0.14 0.12 0.09 0.05 0.02 0.02 0.03 0.04 0.07 0.13 0.21 0.23 0.20 0.21 0.21 0.16 0.12 0.08 0.03 0.00 0.00 0.00 0.00 0.00 0.00 0.00 0.00
0.00 0.01 0.01 0.02 0.02 0.02 0.04 0.07 0.09 0.11 0.14 0.17 0.15 0.12 0.10 0.08 0.05 0.03 0.04 0.07 0.12 0.19 0.31 0.35 0.31 0.25 0.23 0.19 0.16 0.13 0.05 0.01 0.00 0.00 0.00 0.00 0.00 0.00
0.00 0.01 0.02 0.03 0.05 0.06 0.06 0.07 0.08 0.10 0.12 0.13 0.15 0.14 0.13 0.12 0.12 0.09 0.07 0.06 0.09 0.14 0.19 0.27 0.29 0.32 0.33 0.33 0.34 0.20 0.16 0.15 0.11 0.04 0.01 0.00 0.00 0.00
0.01 0.01 0.02 0.04 0.07 0.09 0.08 0.08 0.10 0.10 0.09 0.09 0.08 0.10 0.12 0.13 0.13 0.12 0.11 0.10 0.09 0.09 0.11 0.13 0.17 0.25 0.31 0.33 0.37 0.39 0.25 0.24 0.20 0.16 0.15 0.13 0.08 0.03
0.01 0.03 0.04 0.03 0.04 0.07 0.09 0.10 0.08 0.06 0.07 0.07 0.07 0.07 0.07 0.07 0.07 0.09 0.09 0.10 0.11 0.10 0.08 0.07 0.08 0.12 0.16 0.20 0.22 0.24 0.31 0.19 0.18 0.21 0.21 0.19 0.19 0.23
0.01 0.01 0.03 0.02 0.03 0.05 0.06 0.07 0.10 0.07 0.06 0.06 0.06 0.06 0.06 0.06 0.05 0.04 0.04 0.05 0.06 0.07 0.07 0.06 0.06 0.10 0.08 0.09 0.10 0.12 0.14 0.19 0.14 0.10 0.11 0.13 0.13 0.11
0.01 0.01 0.02 0.01 0.01 0.02 0.03 0.02 0.03 0.03 0.04 0.03 0.04 0.05 0.05 0.06 0.06 0.05 0.03 0.02 0.01 0.01 0.02 0.01 0.01 0.02 0.02 0.03 0.04 0.05 0.05 0.06 0.11 0.11 0.08 0.07 0.06 0.07
0.02 0.01 0.02 0.01 0.01 0.01 0.02 0.01 0.01 0.01 0.01 0.02 0.03 0.03 0.03 0.04 0.04 0.04 0.04 0.03 0.02 0.01 0.01 0.00 0.00 0.00 0.00 0.00 0.00 0.00 0.01 0.01 0.02 0.03 0.04 0.06 0.05 0.04

GFSNE_prec_precacc6_276.txt.gz
Total_Precipitation_Accumulation
0.01 0.02 0.05 0.07 0.16 0.56 0.81 0.57 0.64 0.62 0.30 0.09 0.04 0.04 0.04 0.00 0.00 0.00 0.00 0.00 0.00 0.00 0.00 0.00 0.00 0.00 0.00 0.00 0.00 0.00 0.00 0.00 0.00 0.00 0.00 0.00 0.00 0.00
0.01 0.01 0.02 0.05 0.16 0.31 0.59 0.72 0.56 0.47 0.31 0.12 0.12 0.06 0.02 0.01 0.01 0.00 0.00 0.01 0.00 0.00 0.00 0.00 0.00 0.00 0.00 0.00 0.00 0.00 0.00 0.00 0.00 0.00 0.00 0.00 0.00 0.00
0.01 0.01 0.01 0.04 0.14 0.28 0.42 0.61 0.80 0.66 0.40 0.28 0.16 0.13 0.12 0.11 0.07 0.04 0.04 0.02 0.00 0.00 0.00 0.00 0.00 0.00 0.00 0.00 0.00 0.00 0.00 0.00 0.00 0.00 0.00 0.00 0.00 0.00
0.01 0.01 0.01 0.02 0.05 0.14 0.36 0.39 0.45 0.64 0.53 0.39 0.26 0.11 0.07 0.10 0.06 0.01 0.01 0.00 0.00 0.00 0.00 0.00 0.00 0.00 0.00 0.00 0.00 0.00 0.00 0.00 0.00 0.00 0.00 0.00 0.00 0.00
0.01 0.01 0.01 0.04 0.04 0.04 0.12 0.29 0.33 0.29 0.41 0.36 0.30 0.12 0.08 0.10 0.11 0.05 0.02 0.01 0.00 0.00 0.00 0.00 0.00 0.00 0.00 0.00 0.00 0.00 0.00 0.00 0.00 0.00 0.00 0.00 0.00 0.00
0.01 0.02 0.02 0.02 0.05 0.09 0.10 0.10 0.23 0.34 0.40 0.36 0.29 0.15 0.06 0.11 0.15 0.09 0.04 0.01 0.00 0.00 0.00 0.00 0.00 0.00 0.00 0.00 0.00 0.00 0.00 0.00 0.00 0.00 0.00 0.00 0.00 0.00
0.01 0.01 0.02 0.05 0.04 0.06 0.14 0.15 0.13 0.22 0.32 0.35 0.30 0.25 0.10 0.08 0.13 0.12 0.08 0.01 0.00 0.00 0.00 0.00 0.00 0.00 0.00 0.00 0.00 0.00 0.00 0.00 0.00 0.00 0.00 0.00 0.00 0.00
0.01 0.01 0.02 0.04 0.03 0.02 0.05 0.17 0.20 0.13 0.14 0.19 0.22 0.23 0.16 0.06 0.07 0.15 0.14 0.07 0.01 0.00 0.00 0.00 0.00 0.00 0.00 0.00 0.00 0.00 0.00 0.00 0.00 0.00 0.00 0.00 0.00 0.00
0.00 0.00 0.01 0.02 0.02 0.00 0.01 0.03 0.14 0.22 0.16 0.17 0.16 0.22 0.20 0.14 0.06 0.07 0.21 0.15 0.04 0.00 0.00 0.00 0.00 0.00 0.00 0.00 0.00 0.00 0.00 0.00 0.00 0.00 0.00 0.00 0.00 0.00
0.00 0.00 0.01 0.00 0.01 0.01 0.00 0.00 0.01 0.11 0.16 0.12 0.15 0.18 0.22 0.23 0.18 0.08 0.06 0.29 0.30 0.09 0.05 0.02 0.00 0.00 0.00 0.00 0.00 0.00 0.00 0.00 0.00 0.00 0.00 0.00 0.00 0.00
0.00 0.00 0.01 0.01 0.02 0.01 0.00 0.00 0.00 0.02 0.09 0.15 0.08 0.11 0.28 0.34 0.44 0.25 0.13 0.09 0.22 0.26 0.17 0.11 0.01 0.00 0.00 0.00 0.00 0.00 0.00 0.00 0.00 0.00 0.00 0.00 0.00 0.00
0.00 0.01 0.02 0.02 0.03 0.02 0.01 0.00 0.00 0.00 0.01 0.02 0.03 0.01 0.05 0.15 0.33 0.43 0.24 0.16 0.11 0.09 0.14 0.19 0.06 0.02 0.01 0.00 0.00 0.00 0.00 0.00 0.00 0.00 0.00 0.00 0.00 0.00
0.01 0.01 0.01 0.02 0.03 0.04 0.03 0.02 0.02 0.01 0.00 0.00 0.01 0.01 0.00 0.01 0.04 0.12 0.23 0.27 0.19 0.14 0.07 0.10 0.10 0.07 0.04 0.00 0.00 0.00 0.00 0.00 0.00 0.00 0.00 0.00 0.00 0.00
0.03 0.03 0.02 0.02 0.03 0.03 0.04 0.04 0.03 0.02 0.00 0.00 0.00 0.00 0.00 0.00 0.00 0.01 0.03 0.10 0.18 0.17 0.15 0.19 0.09 0.03 0.04 0.03 0.01 0.00 0.00 0.00 0.00 0.00 0.00 0.00 0.00 0.00
0.01 0.01 0.00 0.01 0.02 0.02 0.04 0.04 0.04 0.02 0.01 0.01 0.01 0.01 0.00 0.00 0.00 0.00 0.00 0.01 0.04 0.09 0.12 0.17 0.20 0.16 0.09 0.02 0.00 0.00 0.00 0.00 0.00 0.00 0.00 0.00 0.00 0.00
0.00 0.00 0.00 0.00 0.00 0.01 0.02 0.03 0.02 0.03 0.05 0.07 0.07 0.05 0.02 0.01 0.00 0.00 0.00 0.00 0.01 0.04 0.05 0.06 0.12 0.16 0.18 0.15 0.10 0.03 0.00 0.00 0.00 0.00 0.00 0.00 0.00 0.00
0.00 0.00 0.00 0.00 0.00 0.01 0.01 0.02 0.02 0.02 0.03 0.05 0.07 0.06 0.06 0.05 0.03 0.01 0.01 0.00 0.01 0.02 0.04 0.04 0.05 0.05 0.11 0.13 0.16 0.16 0.11 0.04 0.01 0.00 0.00 0.00 0.00 0.00
0.00 0.00 0.00 0.01 0.02 0.03 0.02 0.02 0.03 0.03 0.05 0.05 0.06 0.08 0.08 0.09 0.09 0.06 0.05 0.04 0.04 0.04 0.03 0.03 0.03 0.04 0.08 0.12 0.15 0.12 0.13 0.14 0.13 0.07 0.03 0.01 0.00 0.00
0.00 0.01 0.01 0.02 0.03 0.04 0.04 0.04 0.05 0.06 0.05 0.05 0.06 0.08 0.10 0.10 0.10 0.10 0.09 0.08 0.08 0.08 0.06 0.05 0.03 0.03 0.05 0.11 0.15 0.18 0.14 0.13 0.14 0.14 0.14 0.15 0.10 0.03
0.00 0.02 0.02 0.01 0.02 0.04 0.04 0.05 0.05 0.03 0.03 0.04 0.05 0.06 0.08 0.09 0.09 0.09 0.10 0.10 0.09 0.09 0.08 0.06 0.06 0.05 0.06 0.08 0.10 0.12 0.17 0.12 0.12 0.15 0.16 0.14 0.16 0.21
0.00 0.01 0.02 0.01 0.01 0.03 0.03 0.03 0.07 0.06 0.05 0.04 0.04 0.04 0.05 0.06 0.07 0.06 0.06 0.07 0.07 0.07 0.07 0.07 0.08 0.12 0.07 0.06 0.08 0.08 0.09 0.13 0.10 0.09 0.10 0.11 0.11 0.11
0.01 0.01 0.02 0.00 0.00 0.01 0.01 0.00 0.01 0.02 0.03 0.04 0.04 0.04 0.04 0.05 0.07 0.07 0.06 0.05 0.04 0.03 0.04 0.04 0.03 0.04 0.05 0.05 0.06 0.05 0.04 0.04 0.08 0.08 0.06 0.06 0.04 0.04
0.01 0.01 0.01 0.00 0.00 0.01 0.01 0.00 0.00 0.00 0.01 0.02 0.04 0.04 0.04 0.04 0.04 0.05 0.06 0.06 0.05 0.03 0.01 0.00 0.00 0.00 0.01 0.02 0.03 0.02 0.02 0.02 0.01 0.01 0.01 0.02 0.02 0.02